Weather Roundup
Issued by NWS

Home | Current Version | Previous Version | Graphics & Text | Print | Product List | Glossary Off
Versions: 1 2 3 4 5 6 7 8 9 10 11 12 13 14 15 16 17 18 19 20 21 22 23 24 25 26 27 28 29 30 31 32 33 34 35 36 37 38 39 40 41 42 43 44 45 46 47 48 49 50

000
NZUS93 KARX 201859
HRRWXR

CURRENT HOURLY OBSERVATIONS ACROSS
MUCH OF THE UPPER MISSISSIPPI VALLEY
NATIONAL WEATHER SERVICE LA CROSSE WI
200 PM CDT FRI APR 20 2018


...SOUTHEAST MINNESOTA...


CITY           SKY/WX    TMP DP  RH WIND       PRES   REMARKS
ROCHESTER      FAIR      43  29  57 SW5       30.47F
ROCHESTER/MAYO FAIR      47  21  34 SE7       30.47F
WINONA         FAIR      54  23  30 N6        30.46F
AUSTIN         FAIR      41  23  48 SE3       30.48F
ALBERT LEA     FAIR      43  18  36 SE3       30.48S
DODGE CENTER   FAIR      43  27  52 S6        30.48S
PRESTON        FAIR      44  24  44 S5        30.48F
OWATONNA       FAIR      45  27  49 S3        30.48S
FARIBAULT      NOT AVBL
$$

...ELSEWHERE IN MINNESOTA...


CITY           SKY/WX    TMP DP  RH WIND       PRES   REMARKS
MINNEAPOLIS    FAIR      49  18  29 S5        30.47F
INTNL FALLS    FAIR      56  20  24 CALM      30.38F
DULUTH         FAIR      53  25  33 W9        30.40F
RED WING       FAIR      52  18  25 S7        30.47S
REDWOOD FALLS  CLOUDY    40  29  64 SE9       30.45F WCI  34
MANKATO        FAIR      43  26  51 SE7       30.48F
WORTHINGTON    CLOUDY    41  30  65 SE9       30.42F
FAIRMONT       CLOUDY    38  25  59 E12       30.46F WCI  30
$$

...SOUTHWEST WISCONSIN...


CITY           SKY/WX    TMP DP  RH WIND       PRES   REMARKS
LA CROSSE      FAIR      55  21  26 SW8       30.48F
PRAIRIE DU CHI FAIR      53  24  32 SW5       30.49F
BOSCOBEL       FAIR      57  24  28 VRB3      30.48F
LONE ROCK      NOT AVBL
PLATTEVILLE    FAIR      54  27  35 W8        30.49S
FORT MC COY    FAIR      53  19  26 S3        30.49S
MAUSTON-NEW LI FAIR      52  19  26 SE3       30.47S
VIROQUA        FAIR      49  17  28 SW3       30.48S
WIS DELLS      FAIR      52  12  20 CALM      30.48S
$$

...ELSEWHERE IN WISCONSIN...


CITY           SKY/WX    TMP DP  RH WIND       PRES   REMARKS
MILWAUKEE      PTSUNNY   51  29  42 SE7       30.50F
MADISON        PTSUNNY   54  18  24 VRB6      30.48F
GREEN BAY      FAIR      49  22  34 S6        30.49S
EAU CLAIRE     NOT AVBL
BLACK RVR FLS  FAIR      53  13  19 CALM      30.48R
MEDFORD        FAIR      47  22  37 S5        30.46F
WAUSAU         FAIR      50  13  22 W7        30.44F
WIS RAPIDS     FAIR      52  13  21 SW7       30.48F
MARSHFIELD     FAIR      50  19  29 NW5       30.46F
RICE LAKE      FAIR      49  20  30 SW6       30.48S
$$

...NORTHEAST IOWA...


CITY           SKY/WX    TMP DP  RH WIND       PRES   REMARKS
WATERLOO       FAIR      54  29  38 VRB5      30.45
DUBUQUE        FAIR      55  28  35 CALM      30.47F
DECORAH        FAIR      46  27  46 VRB5      30.47F
MASON CITY     PTSUNNY   42  29  59 SE5       30.48F
CHARLES CITY   FAIR      46  28  49 CALM      30.49S
OELWEIN        FAIR      54  32  43 SW7       30.47F
$$

...ELSEWHERE IN IOWA...


CITY           SKY/WX    TMP DP  RH WIND       PRES   REMARKS
DES MOINES     CLOUDY    58  28  32 SE9       30.43F
IOWA CITY      FAIR      59  26  28 SE5       30.47F
FORT DODGE     MOSUNNY   53  32  44 S7        30.42F
MARSHALLTOWN   PTSUNNY   55  28  35 CALM      30.43F
CEDAR RAPIDS   FAIR      58  26  29 E8        30.45F
$$

...NORTHERN ILLINOIS...


CITY           SKY/WX    TMP DP  RH WIND       PRES   REMARKS
CHICAGO-OHARE  PTSUNNY   58  17  20 CALM      30.47F
CHICAGO-MIDWAY PTSUNNY   58  18  21 NE9       30.49F
MOLINE         FAIR      60  17  18 SE7       30.47F
ROCKFORD       FAIR      58  17  20 CALM      30.50S
PEORIA         FAIR      60  24  25 VRB6      30.48F
$$

NOTE: "FAIR" INDICATES FEW OR NO CLOUDS BELOW 12,000 FEET WITH NO
SIGNIFICANT WEATHER AND/OR OBSTRUCTIONS TO VISIBILITY. WIND
SPEEDS ARE IN MILES-PER-HOUR.




USA.gov is the U.S. government's official web portal to all federal, state and local government web resources and services.